Latest Weather Observations for Rutherglen RS

IDV60801

Issued at 10:05 pm EST Thursday 17 April 2014 (issued every 30 minutes, with the page automatically refreshed every 10 minutes)

About weather observations | Map of weather stations | Latest weather observations for VIC | Other Formats
Station Details ID: 082039 Name: RUTHERGLEN RESEARCH Lat: -36.10 Lon: 146.51 Height: 175.0 m
Data from the previous 72 hours. | See also: Recent months at Rutherglen RS
Date/Time
EST
Temp
°C
App
Temp
°C
Dew
Point
Rel
Hum
%
Delta-T
°C
Wind Press
QNH
hPa
Press
MSL
hPa
Rain
since 9 am
mm
Dir
 
Spd
km/h
Gust
km/h
Spd
kts
Gust
kts
17/10:00pm 9.2 9.0 9.2 100 0.0 ESE 0 0 0 0 - - 0.0
17/09:30pm 9.5 9.0 9.5 100 0.0 ESE 2 6 1 3 - - 0.0
17/09:00pm 10.1 9.0 10.1 100 0.0 ESE 6 6 3 3 - - 0.0
17/08:30pm 10.4 10.6 10.4 100 0.0 CALM 0 0 0 0 - - 0.0
17/08:00pm 10.4 10.6 10.4 100 0.0 CALM 0 0 0 0 - - 0.0
17/07:30pm 11.5 12.0 11.5 100 0.0 CALM 0 0 0 0 - - 0.0
17/07:00pm 11.7 12.2 11.5 99 0.1 CALM 0 0 0 0 - - 0.0
17/06:30pm 14.3 14.9 12.0 86 1.3 CALM 0 0 0 0 - - 0.0
17/06:00pm 15.8 16.2 11.4 75 2.4 CALM 0 0 0 0 - - 0.0
17/05:30pm 18.1 18.1 11.2 64 3.8 W 2 6 1 3 - - 0.0
17/05:00pm 20.2 19.2 10.9 55 5.1 SW 7 11 4 6 - - 0.0
17/04:30pm 20.9 19.9 12.3 58 4.9 WSW 9 11 5 6 - - 0.0
17/04:00pm 21.1 19.8 11.4 54 5.4 WSW 9 15 5 8 - - 0.0
17/03:30pm 21.0 20.0 11.1 53 5.5 WSW 7 13 4 7 - - 0.0
17/03:00pm 21.0 19.4 11.6 55 5.3 W 11 17 6 9 - - 0.0
17/02:30pm 20.7 18.9 10.8 53 5.5 WSW 11 17 6 9 - - 0.0
17/02:00pm 21.1 20.5 12.3 57 5.0 SSW 7 15 4 8 - - 0.0
17/01:30pm 20.5 19.1 12.2 59 4.7 SW 11 17 6 9 - - 0.0
17/01:00pm 20.2 18.9 11.4 57 4.9 SW 9 17 5 9 - - 0.0
17/12:30pm 20.1 19.0 11.8 59 4.6 W 9 13 5 7 - - 0.0
17/12:00pm 19.7 19.8 12.7 64 4.0 W 4 13 2 7 - - 0.0
17/11:30am 19.5 19.5 13.7 69 3.3 WNW 6 7 3 4 - - 0.0
17/11:00am 18.9 18.7 13.1 69 3.3 NW 6 7 3 4 - - 0.0
17/10:30am 18.0 18.0 12.5 70 3.1 N 4 9 2 5 - - 0.0
17/10:00am 17.0 16.8 12.9 77 2.3 NE 6 11 3 6 - - 0.0
17/09:30am 16.1 16.5 13.6 85 1.4 NE 4 7 2 4 - - 0.0
17/09:00am 14.0 14.9 14.0 100 0.0 ESE 2 7 1 4 - - 0.0
17/08:30am 12.4 - 12.6 - - SE 2 6 1 3 - - 0.0
17/08:00am 9.1 8.9 9.1 100 0.0 CALM 0 0 0 0 - - 0.0
17/07:30am 6.9 6.2 6.9 100 0.0 CALM 0 0 0 0 - - 0.0
17/07:00am 4.9 3.8 4.9 100 0.0 CALM 0 0 0 0 - - 0.0
17/06:30am 4.6 3.0 4.6 100 0.0 W 2 7 1 4 - - 0.0
17/06:00am 4.8 3.6 4.8 100 0.0 W 0 0 0 0 - - 0.0
17/05:30am 4.8 3.6 4.8 100 0.0 CALM 0 0 0 0 - - 0.0
17/05:00am 5.5 4.5 5.5 100 0.0 CALM 0 0 0 0 - - 0.0
17/04:30am 6.3 4.7 6.3 100 0.0 W 4 6 2 3 - - 0.0
17/04:00am 5.7 4.7 5.7 100 0.0 CALM 0 0 0 0 - - 0.0
17/03:30am 6.2 5.3 6.2 100 0.0 CALM 0 0 0 0 - - 0.0
17/03:00am 5.6 4.6 5.6 100 0.0 CALM 0 0 0 0 - - 0.0
17/02:30am 5.9 5.0 5.9 100 0.0 CALM 0 0 0 0 - - 0.0
17/02:00am 6.9 6.2 6.9 100 0.0 CALM 0 0 0 0 - - 0.0
17/01:30am 6.3 4.3 6.3 100 0.0 E 6 7 3 4 - - 0.0
17/01:00am 6.3 4.3 6.3 100 0.0 E 6 7 3 4 - - 0.0
17/12:30am 7.4 6.8 7.4 100 0.0 CALM 0 0 0 0 - - 0.0
17/12:00am 8.2 7.8 8.2 100 0.0 ESE 0 0 0 0 - - 0.0
 
Date/Time
EST
Temp
°C
App
Temp
°C
Dew
Point
Rel
Hum
%
Delta-T
°C
Wind Press
QNH
hPa
Press
MSL
hPa
Rain
since 9 am
mm
Dir
 
Spd
km/h
Gust
km/h
Spd
kts
Gust
kts
16/11:30pm 7.8 7.3 7.8 100 0.0 CALM 0 0 0 0 - - 0.0
16/11:00pm 8.4 8.0 8.4 100 0.0 CALM 0 0 0 0 - - 0.0
16/10:30pm 8.4 8.0 8.4 100 0.0 CALM 0 0 0 0 - - 0.0
16/10:00pm 8.5 8.2 8.5 100 0.0 CALM 0 0 0 0 - - 0.0
16/09:30pm 9.0 8.8 9.0 100 0.0 CALM 0 0 0 0 - - 0.0
16/09:00pm 10.4 10.6 10.4 100 0.0 CALM 0 0 0 0 - - 0.0
16/08:30pm 10.1 10.2 10.1 100 0.0 CALM 0 0 0 0 - - 0.0
16/08:00pm 11.0 11.3 11.0 100 0.0 CALM 0 0 0 0 - - 0.0
16/07:30pm 12.2 12.8 11.9 98 0.2 CALM 0 0 0 0 - - 0.0
16/07:00pm 12.7 13.3 11.8 94 0.5 CALM 0 0 0 0 - - 0.0
16/06:30pm 14.0 14.7 12.2 89 1.0 CALM 0 0 0 0 - - 0.0
16/06:00pm 15.3 15.6 10.9 75 2.4 CALM 0 0 0 0 - - 0.0
16/05:30pm 16.8 17.2 11.1 69 3.1 CALM 0 0 0 0 - - 0.0
16/05:00pm 18.2 17.1 10.6 61 4.1 WSW 7 9 4 5 - - 0.0
16/04:30pm 19.1 17.2 10.6 58 4.6 WSW 11 15 6 8 - - 0.0
16/04:00pm 20.5 18.8 11.2 55 5.2 W 11 15 6 8 - - 0.0
16/03:30pm 20.6 19.7 11.2 55 5.2 SSW 7 13 4 7 - - 0.0
16/03:00pm 20.1 19.0 10.8 55 5.1 SW 7 9 4 5 - - 0.0
16/02:30pm 19.9 18.7 10.3 54 5.2 WSW 7 13 4 7 - - 0.0
16/02:00pm 19.8 18.3 11.8 60 4.5 WSW 11 32 6 17 - - 0.0
16/01:30pm 19.7 17.5 12.2 62 4.2 SW 15 22 8 12 - - 0.0
16/01:00pm 18.6 17.0 11.7 64 3.8 W 11 17 6 9 - - 0.0
16/12:30pm 19.4 18.5 13.6 69 3.3 WNW 11 19 6 10 - - 0.0
16/12:00pm 18.7 17.8 12.7 68 3.4 NW 9 13 5 7 - - 0.0
16/11:30am 18.4 17.2 12.8 70 3.2 NW 11 17 6 9 - - 0.0
16/11:00am 18.4 17.4 12.4 68 3.4 NNW 9 15 5 8 - - 0.0
16/10:30am 18.1 16.9 12.8 71 3.0 NNE 11 17 6 9 - - 0.0
16/10:00am 17.5 16.3 12.8 74 2.6 NNE 11 15 6 8 - - 0.0
16/09:30am 16.7 15.8 12.5 76 2.3 N 9 13 5 7 - - 0.0
16/09:00am 15.9 15.3 12.3 79 2.0 NNE 7 11 4 6 - - 0.0
16/08:30am 13.9 13.3 13.4 97 0.3 ENE 9 13 5 7 - - 0.0
16/08:00am 11.6 10.8 11.6 100 0.0 E 7 9 4 5 - - 0.0
16/07:30am 7.7 7.2 7.7 100 0.0 CALM 0 0 0 0 - - 0.0
16/07:00am 5.2 4.1 5.2 100 0.0 CALM 0 0 0 0 - - 0.0
16/06:30am 5.1 2.9 5.1 100 0.0 W 6 7 3 4 - - 0.0
16/06:00am 5.3 4.2 5.3 100 0.0 CALM 0 0 0 0 - - 0.0
16/05:30am 5.9 5.0 5.9 100 0.0 CALM 0 0 0 0 - - 0.0
16/05:00am 5.4 4.4 5.4 100 0.0 CALM 0 0 0 0 - - 0.0
16/04:30am 5.7 4.7 5.7 100 0.0 CALM 0 0 0 0 - - 0.0
16/04:00am 6.2 5.3 6.2 100 0.0 CALM 0 0 0 0 - - 0.0
16/03:30am 6.4 5.6 6.4 100 0.0 CALM 0 0 0 0 - - 0.0
16/03:00am 6.8 6.1 6.8 100 0.0 CALM 0 4 0 2 - - 0.0
16/02:30am 7.6 5.7 7.6 100 0.0 SSE 7 9 4 5 - - 0.0
16/02:00am 6.6 5.8 6.6 100 0.0 CALM 0 6 0 3 - - 0.0
16/01:30am 7.1 5.7 7.1 100 0.0 SW 4 7 2 4 - - 0.0
16/01:00am 7.5 6.9 7.5 100 0.0 CALM 0 0 0 0 - - 0.0
16/12:30am 7.4 6.8 7.4 100 0.0 CALM 0 2 0 1 - - 0.0
16/12:00am 7.2 5.4 7.2 100 0.0 E 6 7 3 4 - - 0.0
 
Date/Time
EST
Temp
°C
App
Temp
°C
Dew
Point
Rel
Hum
%
Delta-T
°C
Wind Press
QNH
hPa
Press
MSL
hPa
Rain
since 9 am
mm
Dir
 
Spd
km/h
Gust
km/h
Spd
kts
Gust
kts
15/11:30pm 7.4 6.8 7.4 100 0.0 CALM 0 0 0 0 - - 0.0
15/11:00pm 7.2 5.4 7.2 100 0.0 ESE 6 7 3 4 - - 0.0
15/10:30pm 8.1 6.9 8.1 100 0.0 S 4 7 2 4 - - 0.0
15/10:00pm 8.9 8.7 8.9 100 0.0 CALM 0 0 0 0 - - 0.0
15/09:30pm 9.1 8.9 9.1 100 0.0 CALM 0 0 0 0 - - 0.0
15/09:00pm 9.6 9.5 9.6 100 0.0 CALM 0 0 0 0 - - 0.0
15/08:30pm 10.4 10.6 10.4 100 0.0 CALM 0 0 0 0 - - 0.0
15/08:00pm 10.3 10.4 10.1 99 0.1 CALM 0 0 0 0 - - 0.0
15/07:30pm 11.3 11.7 11.1 99 0.1 CALM 0 0 0 0 - - 0.0
15/07:00pm 12.8 12.9 10.0 83 1.5 CALM 0 0 0 0 - - 0.0
15/06:30pm 13.6 13.4 9.1 74 2.3 CALM 0 0 0 0 - - 0.0
15/06:00pm 15.8 14.7 9.9 68 3.1 SW 6 7 3 4 - - 0.0
15/05:30pm 17.9 16.5 11.0 64 3.8 WSW 9 11 5 6 - - 0.0
15/05:00pm 19.5 17.9 10.2 55 5.0 SW 9 15 5 8 - - 0.0
15/04:30pm 20.3 18.5 10.7 54 5.3 SW 11 15 6 8 - - 0.0
15/04:00pm 20.5 18.8 9.7 50 5.8 SSW 9 15 5 8 - - 0.0
15/03:30pm 21.0 19.5 10.5 51 5.8 WSW 9 13 5 7 - - 0.0
15/03:00pm 20.4 18.7 9.9 51 5.7 SSW 9 17 5 9 - - 0.0
15/02:30pm 20.6 18.8 10.7 53 5.4 WSW 11 17 6 9 - - 0.0
15/02:00pm 20.3 18.1 10.7 54 5.3 SW 13 19 7 10 - - 0.0
15/01:30pm 19.9 17.6 10.3 54 5.2 SSW 13 20 7 11 - - 0.0
15/01:00pm 20.2 19.2 11.1 56 5.0 SSW 7 15 4 8 - - 0.0
15/12:30pm 20.1 18.8 11.3 57 4.9 S 9 15 5 8 - - 0.0
15/12:00pm 19.9 18.9 11.1 57 4.9 W 7 13 4 7 - - 0.0
15/11:30am 19.0 17.9 10.8 59 4.5 WSW 7 13 4 7 - - 0.0
15/11:00am 18.7 17.5 9.5 55 4.9 SSE 6 11 3 6 - - 0.0
15/10:30am 17.4 16.5 9.3 59 4.3 SSE 4 9 2 5 - - 0.0
15/10:00am 17.0 16.0 8.7 58 4.3 SE 4 9 2 5 - - 0.0
15/09:30am 15.6 14.4 9.7 68 3.1 SSE 6 9 3 5 - - 0.0
15/09:00am 14.2 13.1 10.0 76 2.2 ESE 6 9 3 5 - - 0.0
15/08:30am 11.9 12.5 11.9 100 0.0 CALM 0 0 0 0 - - 0.0
15/08:00am 9.3 9.2 9.3 100 0.0 CALM 0 0 0 0 - - 0.0
15/07:30am 7.4 6.8 7.4 100 0.0 CALM 0 0 0 0 - - 0.0
15/07:00am 5.2 4.1 5.2 100 0.0 CALM 0 0 0 0 - - 0.0
15/06:30am 4.6 3.4 4.6 100 0.0 CALM 0 0 0 0 - - 0.0
15/06:00am 5.0 3.1 5.0 100 0.0 SE 4 7 2 4 - - 0.0
15/05:30am 4.8 3.6 4.8 100 0.0 CALM 0 0 0 0 - - 0.0
15/05:00am 5.2 4.1 5.2 100 0.0 CALM 0 0 0 0 - - 0.0
15/04:30am 4.9 2.6 4.9 100 0.0 SSE 6 7 3 4 - - 0.0
15/04:00am 5.2 3.7 5.2 100 0.0 NE 2 7 1 4 - - 0.0
15/03:30am 6.2 5.3 6.2 100 0.0 CALM 0 0 0 0 - - 0.0
15/03:00am 6.2 4.9 6.2 100 0.0 SSE 2 7 1 4 - - 0.0
15/02:30am 6.5 5.7 6.5 100 0.0 CALM 0 0 0 0 - - 0.0
15/02:00am 6.8 6.1 6.8 100 0.0 CALM 0 0 0 0 - - 0.0
15/01:30am 6.5 4.6 6.5 100 0.0 SSE 6 6 3 3 - - 0.0
15/01:00am 6.9 5.0 6.9 100 0.0 SSE 6 7 3 4 - - 0.0
15/12:30am 7.2 6.6 7.2 100 0.0 CALM 0 0 0 0 - - 0.0
15/12:00am 8.0 7.5 8.0 100 0.0 CALM 0 0 0 0 - - 0.0
 
Date/Time
EST
Temp
°C
App
Temp
°C
Dew
Point
Rel
Hum
%
Delta-T
°C
Wind Press
QNH
hPa
Press
MSL
hPa
Rain
since 9 am
mm
Dir
 
Spd
km/h
Gust
km/h
Spd
kts
Gust
kts
14/11:30pm 8.2 7.8 8.2 100 0.0 CALM 0 0 0 0 - - 0.0
14/11:00pm 8.4 8.0 8.4 100 0.0 CALM 0 0 0 0 - - 0.0
14/10:30pm 9.0 8.8 9.0 100 0.0 CALM 0 0 0 0 - - 0.0

Other Formats:

Comma delimited format used in spreadsheet applications
http://www.bom.gov.au/fwo/IDV60801/IDV60801.95837.axf

JavaScript Object Notation format (JSON) in row-major order
http://www.bom.gov.au/fwo/IDV60801/IDV60801.95837.json